Tracking 30995 objects as of 7-Jul-2025
HD Live streaming from Space Station
objects crossing your sky now

DELTA 1 DEB

Track DELTA 1 DEB now!
10-day predictions


NORAD ID: 12246
Int'l Code: 1978-026CP
Perigee: 845.2 km
Apogee: 923.1 km
Inclination: 99.1 °
Period: 102.5 minutes
Semi major axis: 7255 km
RCS: 0.186 m2 (medium)
Launch date: March 5, 1978
Source: United States (US)
Launch site: AIR FORCE WESTERN TEST RANGE (AFWTR)

Note: This is SATELLITE DEBRIS
Your satellite tracking list
Your tracking list is empty




NASA's NSSDC Master Catalog

Two Line Element Set (TLE):
1 12246U 78026CP  25187.59052377  .00000339  00000-0  23628-3 0  9998
2 12246  99.1201  69.2343 0053673 211.0980 208.2930 14.04852194269314
Source of the keplerian elements: AFSPC